Theta_e
341 343 344 343 347 348 352 351 346 347 347 346 346 346 347 345 348 353 343 343 344 340 338 338 337 334 332 330 329 328 327 327 327 328 328 328 328 326 324 323 323 324 324 323 324 325 326 326 330
344 341 342 342 348 352 352 346 346 345 347 346 345 346 346 347 343 344 342 343 340 341 340 340 334 333 330 327 324 321 320 320 320 320 319 319 320 321 323 325 326 327 326 325 324 323 323 324 325
343 341 342 344 347 351 349 346 345 344 344 344 345 346 345 343 342 343 343 340 343 342 339 335 334 330 326 323 323 322 321 320 318 316 316 316 316 316 316 315 315 315 315 316 318 322 325 324 322
343 341 342 345 347 345 343 343 343 341 341 341 341 345 344 344 343 343 342 343 343 342 343 335 331 325 323 323 322 319 317 316 316 315 315 314 313 312 312 313 313 314 314 314 314 314 313 315 320
340 341 342 343 345 344 342 342 343 341 339 340 342 345 345 344 344 342 342 343 342 342 341 334 326 324 323 321 319 317 317 317 317 315 315 315 314 313 314 315 316 316 316 315 314 313 312 312 312
341 340 340 341 342 342 342 342 343 343 340 340 342 344 345 342 343 341 343 342 341 341 338 331 324 323 321 319 317 317 317 318 317 316 314 315 315 315 316 316 317 317 316 315 315 315 314 313 312
340 338 340 340 341 341 342 342 342 342 340 340 340 342 344 342 343 342 342 341 340 338 334 333 331 321 320 318 317 317 318 319 318 317 316 315 314 314 313 312 313 313 313 314 314 315 315 315 315
340 340 341 339 339 340 342 343 343 341 344 341 340 341 346 341 341 341 341 339 338 333 332 332 330 330 329 327 316 316 318 319 318 317 317 316 319 316 316 318 320 313 314 313 314 314 314 314 314
338 341 340 340 340 338 341 342 344 344 343 341 341 342 343 342 341 341 340 339 334 332 331 330 328 328 328 327 323 319 320 320 321 322 317 321 321 322 321 318 316 313 312 313 314 315 315 313 317
340 341 340 340 340 340 340 341 344 344 344 343 342 343 343 342 342 341 340 338 333 331 331 329 323 324 326 325 321 323 325 327 324 323 321 323 320 320 319 320 317 315 312 315 315 316 316 318 319
339 342 341 340 340 340 341 341 342 343 344 341 342 345 344 342 342 340 339 336 332 332 331 329 324 323 326 323 323 325 326 326 325 324 321 323 322 322 322 321 320 320 319 320 319 319 319 319 319
341 339 339 340 340 341 341 341 343 343 343 344 343 344 344 342 341 339 336 333 331 332 332 329 326 325 321 324 323 324 325 324 324 324 323 324 324 323 322 321 320 320 320 320 320 319 319 320 319
341 340 340 340 340 340 341 342 342 342 343 342 342 344 343 342 341 338 335 333 331 332 332 331 326 325 324 322 325 325 326 325 324 324 324 324 324 324 323 322 321 320 320 320 320 319 319 319 319
339 339 340 339 341 341 342 342 343 342 343 342 343 342 341 341 340 338 336 335 334 334 334 330 326 325 323 323 323 326 327 326 326 325 325 325 325 325 324 323 322 321 321 320 320 319 319 319 318
339 341 339 340 342 343 343 344 346 342 342 342 343 341 340 340 339 338 337 336 336 335 333 327 326 325 323 323 324 327 326 326 327 327 328 327 326 327 324 324 323 321 321 322 321 320 319 319 319
338 341 340 340 340 342 344 340 341 343 342 342 342 341 339 338 338 337 337 337 336 334 331 328 327 326 325 326 325 327 327 328 327 328 328 330 327 326 325 324 324 322 322 321 321 320 319 319 319
338 336 335 336 337 341 345 341 346 345 342 342 342 341 339 337 337 337 337 336 335 333 330 329 328 327 327 328 328 328 328 328 327 328 328 329 327 325 324 325 324 323 322 322 321 320 320 320 319
330 332 333 335 338 340 342 345 343 345 343 343 342 340 338 336 337 336 336 336 334 332 330 329 329 328 327 328 327 328 328 328 329 328 326 327 325 325 325 325 325 324 323 322 322 321 320 320 320
330 331 333 334 336 338 339 340 340 342 345 343 342 341 337 335 334 334 334 335 333 332 331 330 330 329 329 329 329 329 329 327 326 324 326 325 324 323 324 324 324 324 322 323 322 322 322 321 321
330 331 332 334 338 339 339 341 340 340 342 344 343 342 339 336 335 334 333 334 333 333 332 328 328 328 328 330 331 328 328 322 323 321 322 322 321 321 321 321 319 319 322 322 322 322 321 321 321
330 330 331 333 339 339 341 341 337 342 343 344 343 343 342 338 337 336 336 335 334 334 333 328 328 329 329 329 328 326 324 321 319 318 317 318 319 317 317 318 317 316 317 319 321 321 319 322 320
330 329 330 334 340 335 341 338 337 339 342 343 343 343 343 341 339 338 337 336 336 336 335 334 329 330 330 325 325 319 316 316 316 317 318 319 319 318 317 317 316 316 316 317 318 319 319 320 320
329 330 333 334 337 338 336 342 337 341 337 338 340 343 342 343 340 338 337 338 338 338 337 333 330 328 323 316 313 319 320 318 318 318 319 320 317 318 318 317 316 316 316 316 317 315 317 318 317
329 333 335 336 335 336 336 338 335 337 339 337 336 339 341 341 341 340 340 338 337 337 335 327 326 324 314 312 312 313 315 320 318 318 318 318 317 316 316 317 315 316 316 316 316 314 317 317 317
334 335 335 333 333 337 338 336 335 337 335 335 336 336 339 340 339 337 337 336 336 334 330 323 328 324 314 317 321 323 324 323 320 320 318 318 316 315 316 317 315 315 316 316 316 313 315 317 317
335 336 334 336 335 335 334 336 337 333 333 335 335 336 335 335 336 336 335 334 332 329 327 327 326 321 319 321 323 322 323 320 319 318 319 318 316 315 316 316 315 315 315 315 315 315 313 316 316
335 335 334 335 333 334 332 333 332 334 333 335 335 334 334 334 334 333 332 331 329 327 324 322 322 321 321 322 322 320 321 320 318 315 312 315 316 316 314 314 314 314 315 315 315 313 313 315 316
333 331 333 333 335 335 332 333 333 332 332 332 334 334 333 333 333 331 330 330 329 327 323 322 316 320 320 320 320 319 319 318 317 316 315 315 314 314 313 313 314 314 315 315 315 314 314 314 313
333 332 333 333 334 334 332 330 330 331 331 332 331 331 333 332 331 330 328 325 323 320 317 320 320 318 318 318 317 317 317 315 314 312 312 312 312 312 312 313 313 314 314 313 313 315 318 315 315
330 332 332 333 333 332 331 333 330 330 329 329 329 331 332 331 329 326 322 318 316 316 316 316 318 317 317 317 316 315 313 312 312 311 310 310 310 311 311 313 312 312 314 314 315 315 316 316 317
Wind_Speed
4 2 2 3 5 3 6 5 5 8 6 3 4 2 8 10 8 3 11 12 15 13 13 12 6 5 5 6 6 6 5 5 4 3 2 2 2 2 2 3 5 6 7 6 7 7 8 7 7
2 1 1 3 1 7 7 6 9 8 8 8 7 3 2 6 6 10 12 14 14 13 13 11 7 6 6 5 5 4 3 2 2 1 2 2 3 3 4 5 6 7 8 9 8 9 9 9 8
2 1 7 2 4 6 9 7 11 12 7 3 4 2 2 3 7 15 13 16 14 12 10 9 6 5 5 5 4 3 2 2 2 3 4 4 5 6 6 7 7 8 9 10 11 11 11 11 10
2 4 5 3 13 8 12 9 10 9 6 2 4 7 7 7 10 9 17 15 13 11 10 8 7 5 5 4 4 4 4 3 3 4 5 5 5 6 6 7 8 9 9 10 10 11 12 13 14
1 5 6 8 11 8 7 9 4 6 5 4 2 6 7 5 7 12 15 15 13 11 9 9 7 5 4 3 4 6 7 7 7 6 5 4 3 4 5 6 8 9 10 11 12 12 11 11 12
7 2 7 9 11 8 7 7 5 4 3 5 4 9 7 8 10 15 14 14 12 11 11 8 6 5 3 3 5 6 7 8 8 9 8 7 5 5 5 6 8 10 11 11 11 11 11 12 11
2 3 11 9 10 9 7 4 1 3 3 5 6 3 5 11 14 15 14 13 13 12 11 9 6 4 3 4 5 6 6 7 9 9 8 7 7 6 6 6 6 8 8 9 10 10 9 9 10
2 1 6 6 5 10 7 6 1 1 3 6 3 3 6 19 19 16 16 14 13 12 10 8 7 5 5 1 5 6 7 8 9 9 8 8 8 9 9 11 13 9 7 8 10 10 10 10 12
2 5 5 5 3 9 7 6 3 1 4 5 3 1 3 21 20 18 16 14 13 12 11 9 6 5 5 3 2 5 6 6 8 8 8 7 3 5 7 10 12 10 8 7 9 10 12 12 12
3 3 5 5 4 1 7 8 6 5 6 8 6 4 12 21 20 19 17 15 15 13 11 8 6 4 4 2 1 1 1 1 1 3 4 4 6 5 7 9 12 10 9 8 9 10 11 10 7
2 7 3 3 1 4 6 9 8 10 7 7 8 9 15 19 19 18 15 14 15 13 11 8 6 3 4 2 1 1 1 2 4 3 5 5 5 6 7 8 8 7 10 5 8 9 8 10 9
3 1 1 1 4 7 10 9 11 13 8 2 5 10 17 20 20 18 17 15 15 13 11 8 7 4 6 2 1 2 3 5 3 5 5 6 5 8 8 7 6 8 7 8 8 9 11 10 10
4 2 3 3 7 8 7 12 15 13 10 5 6 12 16 18 18 17 15 14 14 12 10 9 9 8 6 3 3 3 4 6 6 6 7 6 7 8 8 9 8 8 9 8 10 10 11 10 11
2 3 7 6 6 6 10 11 5 12 11 10 12 14 16 18 19 17 17 15 13 11 10 10 9 10 9 7 7 7 7 8 8 8 9 10 9 10 10 11 10 11 10 10 10 11 11 10 11
3 8 6 10 8 6 9 12 15 14 13 14 15 15 16 18 18 18 17 14 11 10 10 11 11 13 12 12 12 9 10 10 11 11 12 12 13 14 15 13 12 12 12 13 11 11 11 11 11
7 4 8 3 7 3 9 11 4 14 15 16 15 16 16 18 17 16 15 14 12 11 11 10 11 11 12 12 16 12 11 12 13 14 14 14 16 17 16 14 14 13 13 13 12 11 11 12 13
7 8 8 3 8 4 12 13 7 6 13 16 16 17 17 17 17 16 16 15 14 13 12 12 13 13 13 14 14 13 13 13 14 14 13 15 16 15 17 16 15 14 15 15 14 12 12 13 14
12 12 7 6 5 10 12 18 8 8 12 16 16 17 18 18 17 16 16 15 15 14 15 14 14 14 15 15 14 12 13 13 13 14 14 14 14 15 16 15 16 16 16 16 16 15 13 15 16
12 12 11 9 2 7 13 15 14 10 14 16 18 20 20 18 14 14 15 15 15 15 15 15 14 12 12 11 10 11 13 13 15 14 14 13 14 16 16 15 16 19 17 17 17 18 17 16 16
10 10 10 6 3 8 12 16 15 11 15 17 19 21 21 19 17 17 16 15 17 16 16 15 13 12 13 11 9 9 10 12 12 10 10 10 10 11 13 15 19 20 20 21 22 21 19 17 17
14 16 10 11 2 11 10 18 12 4 9 12 16 20 21 21 20 18 16 17 17 16 16 15 15 15 12 10 8 9 10 11 8 8 9 10 10 11 13 15 17 19 20 22 23 27 26 20 16
13 13 10 7 7 12 3 14 16 4 9 9 13 16 20 20 20 18 17 18 18 15 13 15 16 12 10 9 8 10 10 10 11 11 12 13 11 12 13 14 16 18 20 22 24 24 25 21 19
16 11 9 9 11 11 18 7 9 4 9 4 5 13 16 22 19 19 17 16 18 16 15 13 12 10 7 8 7 8 10 11 13 14 14 14 15 15 17 17 17 17 18 20 22 23 23 25 24
11 9 7 9 11 13 5 5 11 10 8 8 6 6 9 12 16 13 12 17 14 10 9 5 9 7 4 6 9 12 15 15 16 17 18 19 19 20 18 19 23 20 19 18 19 20 22 24 24
9 11 12 10 9 9 4 5 9 9 7 9 8 5 3 7 10 11 13 10 12 11 10 3 6 6 7 8 10 12 14 16 18 18 21 20 22 24 24 22 22 20 19 20 20 20 22 21 22
4 7 8 18 15 16 6 5 4 5 7 6 4 3 4 5 6 7 8 9 9 10 3 5 7 5 8 10 12 13 14 16 18 19 18 19 22 24 23 25 22 21 20 20 20 20 21 23 24
4 8 6 11 17 10 5 2 8 1 4 4 4 2 3 5 6 7 7 7 7 3 4 6 7 9 12 12 12 15 14 14 16 21 22 19 23 23 28 25 22 22 21 20 22 23 20 19 22
6 3 7 7 9 12 6 7 6 12 12 11 5 3 2 4 7 5 3 3 5 1 6 6 16 11 12 13 13 13 12 12 15 16 19 22 24 25 22 20 21 22 22 21 22 23 20 21 21
4 7 3 4 6 9 9 6 8 11 11 12 13 10 3 4 4 3 3 2 2 5 10 10 8 9 9 10 10 12 13 15 17 19 21 22 23 21 19 19 21 22 23 23 25 23 21 22 23
3 4 3 6 6 4 6 4 9 11 12 13 13 10 4 2 2 3 4 7 9 6 12 9 6 6 8 9 13 15 17 19 20 21 21 20 20 20 20 20 21 22 22 21 19 19 18 21 22
Wind_Direction
67 91 195 260 228 172 111 99 125 111 131 91 83 14 51 31 7 49 142 146 144 147 150 144 128 105 95 84 82 80 79 74 71 59 49 26 0 338 314 292 291 294 293 288 285 282 288 292 278
146 35 238 236 256 154 102 131 88 76 96 113 120 119 67 72 60 122 133 147 151 146 147 148 148 126 120 114 99 87 78 65 45 27 347 339 338 326 309 297 291 291 293 290 285 281 282 277 268
137 217 267 102 86 70 106 100 103 103 109 143 131 41 43 84 117 139 152 151 146 143 144 155 147 134 119 102 82 62 29 356 330 317 308 312 309 305 304 301 299 299 297 298 292 284 277 277 276
243 213 213 140 99 69 90 99 106 119 99 93 115 100 89 101 134 150 153 149 150 146 140 155 154 137 105 82 63 48 44 31 6 345 332 317 304 301 300 303 302 304 304 303 302 298 289 281 277
203 248 117 116 97 101 98 109 84 79 68 107 156 114 107 130 135 158 155 158 159 156 148 158 151 131 108 74 56 57 54 50 48 41 28 13 347 321 312 309 313 312 311 312 309 306 299 291 281
184 254 137 108 106 109 114 135 117 70 89 116 135 132 125 168 145 150 158 163 160 154 159 162 149 132 115 76 59 54 48 46 41 34 33 35 24 354 331 319 313 311 315 315 311 306 303 299 293
40 136 90 114 116 128 133 159 112 77 103 105 131 115 122 158 159 155 157 159 162 170 163 156 151 134 107 72 51 47 46 35 31 28 26 22 20 14 359 349 330 323 323 318 315 307 307 305 303
5 340 147 106 139 106 129 181 189 216 92 134 161 158 162 178 168 165 165 168 172 172 167 162 162 148 134 61 36 29 32 27 23 14 12 10 15 10 8 25 326 327 312 302 302 306 309 312 309
338 216 139 121 170 111 149 191 172 193 160 193 178 101 142 165 165 170 172 178 180 177 175 166 175 174 167 169 16 19 10 15 16 11 6 17 354 2 5 322 347 344 324 310 307 307 309 317 331
275 279 72 39 65 126 171 227 178 213 199 208 183 151 149 164 173 179 180 186 186 181 179 181 177 168 167 157 118 77 199 300 308 355 360 10 331 341 347 342 355 0 354 339 333 322 331 354 306
93 15 89 125 249 286 217 210 201 226 230 236 215 187 170 175 184 188 189 192 188 186 183 184 202 181 168 187 80 32 346 303 309 342 12 327 338 321 334 340 340 346 333 347 319 311 309 293 301
267 146 206 143 223 244 238 222 212 229 262 154 220 195 184 187 190 192 190 189 190 190 193 194 195 214 221 194 170 335 342 324 313 296 334 329 339 318 325 323 323 330 320 324 319 312 295 305 298
254 176 228 238 252 249 233 234 241 233 225 219 197 186 190 193 196 196 192 191 191 194 203 206 207 210 216 257 270 308 305 314 287 305 297 315 317 305 317 308 308 299 306 314 313 310 302 299 298
360 285 262 251 237 230 228 234 236 237 203 197 186 189 195 196 197 195 197 200 199 208 216 212 213 232 247 245 280 294 300 302 309 297 297 305 305 298 299 295 294 290 294 299 304 302 300 296 293
291 269 245 232 223 234 233 247 232 245 202 201 196 196 198 199 198 202 207 207 213 218 217 226 228 250 259 275 289 286 288 292 300 299 297 298 298 291 290 287 280 282 282 286 303 301 300 303 297
260 234 266 127 224 222 215 292 66 201 205 213 206 202 201 199 205 206 212 215 217 213 216 243 235 243 267 266 277 279 281 288 292 287 284 291 298 296 285 282 281 279 277 281 286 289 289 294 292
192 312 296 254 216 218 222 289 59 190 215 226 216 210 206 205 211 211 210 216 219 225 228 235 246 241 249 262 273 275 280 287 291 290 294 297 291 290 284 277 274 275 276 272 277 281 285 288 291
340 329 316 265 151 221 240 257 243 209 222 232 224 219 215 213 213 214 210 214 219 225 239 242 238 246 254 265 276 280 281 291 295 302 295 287 296 294 288 281 271 269 269 270 271 270 276 276 287
312 316 295 309 200 255 264 270 279 235 229 237 229 221 219 217 214 212 209 212 221 225 236 245 249 252 260 258 269 280 283 289 294 293 296 299 299 294 289 280 276 275 273 264 260 265 273 275 282
295 299 296 280 254 235 283 278 287 262 241 237 234 227 222 217 214 214 215 218 223 228 236 241 244 243 246 254 267 267 274 286 286 292 299 306 311 306 300 293 289 286 278 272 262 263 261 266 274
308 307 298 287 156 240 268 270 267 226 247 235 236 233 225 221 216 214 218 221 224 226 229 234 238 241 253 251 256 279 289 302 301 307 317 312 308 311 309 304 297 291 287 278 270 266 266 262 262
299 319 299 265 244 298 242 295 303 307 266 237 243 233 230 225 223 220 218 223 224 223 226 224 232 243 245 253 253 270 279 278 287 303 304 319 310 309 307 310 304 296 291 281 276 269 261 254 260
285 308 284 262 265 314 262 251 307 157 285 359 282 242 235 228 227 219 215 219 229 208 212 223 238 231 238 254 263 276 279 290 293 296 299 305 318 312 313 314 311 301 296 285 280 272 264 259 258
280 253 232 244 260 269 10 300 307 7 8 325 354 325 232 233 219 225 220 226 216 201 197 194 237 205 251 293 282 282 283 280 287 291 293 301 305 307 304 308 310 300 295 294 293 283 266 258 253
232 259 274 290 283 284 35 297 326 6 8 341 331 341 207 197 217 223 214 203 187 164 170 244 194 234 275 266 262 270 277 278 286 291 295 291 304 303 302 304 305 299 294 293 289 288 276 257 251
238 302 290 292 312 322 323 291 52 354 330 333 345 326 178 174 166 158 161 172 176 166 216 218 217 243 271 272 277 281 279 286 284 294 285 292 295 302 300 305 302 298 297 294 288 281 278 261 251
140 257 6 291 278 261 309 111 243 189 28 333 329 291 186 179 164 158 158 168 183 200 305 286 265 280 280 289 289 297 294 292 290 288 295 298 300 296 299 295 299 297 293 292 289 285 273 259 255
279 28 275 252 283 302 334 259 10 14 5 358 328 291 207 185 168 168 170 184 186 256 348 313 286 275 288 301 301 300 299 305 304 305 306 304 301 297 294 295 297 295 294 289 285 281 270 250 246
213 233 224 306 306 306 304 20 29 18 1 348 336 343 301 198 192 180 156 131 18 354 319 285 289 308 308 311 314 313 309 307 307 310 308 306 301 293 292 295 295 297 292 285 282 277 261 241 246
307 12 328 284 281 297 291 19 48 24 10 360 351 6 52 93 121 106 109 83 27 21 290 306 324 333 327 325 319 318 313 310 312 311 310 307 301 296 292 293 295 293 288 292 289 269 249 240 235